Location: Champignolles
(47.0543°N, 4.5663°E)
Time: 07:08:30
(UTC+00:00)

Cosmos 923 Rocket - Pass Details

Date: 21 April 2021
Orbit: 759 x 785 km, 74.0° (Epoch: 13 May)

Event Time Altitude Azimuth Distance (km) Brightness Sun altitude
Rises 02:47:05 0° 326° (NW) 3,232 7.3 -17.9°
Reaches altitude 10° 02:49:55 10° 311° (NW) 2,303 6.4 -17.5°
Enters shadow 02:53:32 22° 267° (W) 1,635 5.3 -17.0°
